#timestamp,LO_Frequency,Hit,StdDev 
1552176015.2,286046995.4,N
1552176035.1,286046996.0,N
1552176036.0,286046996.0,N
1552176055.8,286046995.4,N
1552176075.6,286046999.2,N
1552176095.5,286046999.6,N
1552176115.3,286046997.3,N
1552176135.1,286046996.7,N
1552176155.9,286046995.2,N
1552176175.7,286046995.5,N
1552176195.6,286046999.3,N
1552176215.4,286046999.4,N
1552176235.2,286046997.7,N
1552176255.1,286046999.3,N
1552176256.0,286046999.3,N
1552176275.8,286047001.2,N
1552176295.7,286046998.9,N
1552176315.5,286047001.2,N
1552176335.3,286047000.8,N
1552176355.2,286047000.3,N
1552176375.0,286047000.9,N
1552176375.9,286047000.9,N
1552176395.7,286047001.1,N
1552176415.6,286047000.6,N
1552176435.4,286046999.3,N
1552176455.3,286046997.0,N
1552176475.1,286046999.3,N
1552176476.0,286046999.3,N
1552176495.8,286047001.2,N
1552176515.7,286046998.2,N
1552176535.5,286046998.6,N
1552176555.3,286047001.1,N
1552176575.2,286046998.3,N
1552176595.0,286046998.9,N
1552176595.9,286046998.9,N
1552176615.8,286046998.4,N
1552176635.6,286046998.3,N
1552176655.4,286047000.6,N
1552176675.3,286047000.6,N
1552176695.1,286047000.9,N
1552176715.9,286047001.1,N
1552176735.7,286047000.7,N
1552176755.5,286047002.2,N
1552176775.4,286047001.8,N
1552176795.2,286047001.4,N
1552176815.1,286047001.8,N
1552176816.0,286047001.8,N
1552176835.8,286047002.1,N
1552176855.6,286047003.1,N
1552176875.5,286047005.5,Y
1552176895.3,286047003.1,P
1552176915.2,286047002.6,N
1552176935.9,286047001.7,N
1552176955.7,286047002.3,N
1552177005.6,286047001.9,E
1552177015.5,286046999.7,N
1552177035.4,286047001.1,P
1552177055.2,286046998.1,N
1552177075.0,286046999.7,N
1552177075.9,286046999.7,N
1552177095.8,286047002.8,N
1552177115.6,286047002.7,N
1552177135.5,286047000.3,N
1552177155.3,286047000.2,N
1552177175.1,286047002.7,N
1552177195.9,286047000.7,N
1552177215.7,286046998.1,N
1552177235.6,286046998.3,N
1552177255.4,286046999.9,N
1552177275.2,286047002.8,N
1552177295.1,286047001.6,N
1552177296.0,286047001.6,N
1552177315.8,286047002.3,N
1552177335.6,286047002.1,N
1552177355.5,286046998.1,N
1552177375.3,286046997.3,N
1552177395.2,286046996.0,N
1552177415.9,286046992.2,Y
1552177435.7,286046992.7,P
1552177455.6,286046989.2,N
1552177475.4,286046987.2,N
1552177495.2,286046991.6,N
1552177515.1,286046991.5,N
1552177516.0,286046991.5,N
1552177535.8,286046988.8,N
1552177555.7,286046991.4,N
1552177575.5,286046990.7,N
1552177595.3,286046990.1,N
1552177615.2,286046990.6,N
1552177635.0,286046993.1,N
1552177635.9,286046993.1,N
1552177655.8,286046990.2,Y
1552177675.6,286046998.7,P
1552177695.4,286047000.3,N
1552177715.3,286047000.7,N
1552177735.1,286047000.7,N
1552177755.8,286047000.3,N
1552177775.7,286047000.8,N
1552177795.5,286047000.4,N
1552177815.4,286047000.3,N
1552177835.2,286047001.4,N
1552177855.0,286047003.2,N
1552177855.9,286047003.2,N
1552177875.8,286047005.9,N
1552177895.6,286047005.0,N
1552177915.4,286047007.1,N
1552177935.3,286047007.3,N
1552177955.1,286047003.0,N
1552177975.9,286047003.9,N
1552177995.7,286047000.3,N
1552178015.5,286046998.4,N
1552178035.4,286047000.9,N
1552178055.2,286047000.9,N
1552178075.0,286046999.8,N
1552178076.0,286046999.8,N
1552178095.8,286047002.4,N
1552178115.6,286047001.9,N
1552178135.5,286047002.8,N
1552178155.3,286047002.2,N
1552178175.1,286047001.8,N
1552178195.9,286047003.6,N
1552178215.7,286047004.0,N
1552178235.6,286047003.6,N
1552178255.4,286047006.0,N
1552178275.2,286047005.4,N
1552178295.1,286047005.8,N
1552178296.0,286047005.8,N
1552178315.8,286047005.7,N
1552178335.6,286047003.1,N
1552178355.5,286047005.8,N
1552178375.3,286047005.4,N
1552178395.2,286047005.0,N
1552178415.9,286047004.5,N
1552178435.7,286047005.5,N
1552178455.6,286047007.1,Y
1552178475.4,286047004.8,P
1552178495.2,286047005.8,P
1552178515.1,286047006.6,P
1552178516.0,286047006.6,Y
1552178535.8,286046999.7,P
1552178555.7,286047000.6,N
1552178575.5,286046999.7,N
1552178595.3,286047002.4,N
1552178615.2,286047000.3,N
1552178635.0,286047000.2,N
1552178635.9,286047000.2,N
1552178655.7,286046998.1,N
1552178675.6,286047001.0,N
1552178695.4,286046998.9,N
1552178715.3,286047001.2,N
1552178735.1,286046998.7,N
1552178736.0,286046998.7,N
1552178755.8,286046998.6,N
1552178775.7,286047000.2,N
1552178795.5,286047001.0,N
1552178815.3,286047000.0,N
1552178835.2,286047002.7,N
1552178855.0,286047000.1,N
1552178855.9,286047000.1,N
1552178875.8,286046998.8,N
1552178895.6,286046997.4,N
1552178915.4,286046996.3,N
1552178935.3,286046992.7,Y
1552178955.1,286046989.8,P
1552178975.9,286046988.3,N
1552178995.7,286046985.4,N
1552179015.5,286046986.2,N
1552179035.4,286046986.1,N
1552179055.2,286046986.5,N
1552179075.0,286046985.5,Y
1552179076.0,286046985.5,P
1552179095.8,286046999.4,N
1552179115.6,286047002.6,N
1552179135.5,286047002.1,N
1552179155.3,286047004.3,N
1552179175.1,286047001.3,N
1552179195.9,286047003.6,N
1552179215.7,286047003.6,N
1552179235.5,286047004.9,N
1552179255.4,286047005.0,N
1552179275.2,286047006.9,N
1552179295.1,286047007.0,N
1552179296.0,286047007.0,N
1552179315.8,286047007.3,N
1552179335.6,286047006.9,N
1552179355.5,286047006.9,N
1552179375.3,286047006.4,N
1552179395.2,286047011.9,N
1552179415.9,286047009.2,N
1552179435.7,286047006.7,N
1552179455.6,286047009.1,N
1552179475.4,286047008.6,N
1552179495.2,286047010.2,N
1552179515.1,286047010.3,N
1552179516.0,286047010.3,N
1552179535.8,286047010.5,N
1552179555.7,286047009.3,N
1552179575.5,286047012.2,N
1552179595.3,286047010.9,N
